User: anonymous   Login
Location: *
(51.0333°S, 178.4667°E)
Time: 19:48:37
(UTC+00:00)
Language:

Cosmos 1674 Rocket - Orbit

View from above orbital plane
View from above orbital plane
View from above satellite
View from above satellite

Ground track
Ground track

The orbit data is extracted from the following two-line orbital elements,

1 15945U 85069B   20023.54949535 +.00000056 +00000-0 +37503-5 0  9997
2 15945 082.5297 322.9326 0020494 029.5368 330.7000 14.84025329840898
Epoch (UTC): 23 January 2020 13:11:16
Eccentricity: 0.0020494
inclination: 82.5297°
perigee height: 602 km
apogee height: 631 km
right ascension of ascending node: 322.9326°
argument of perigee: 29.5368°
revolutions per day: 14.84025329
mean anomaly at epoch: 330.7000°
orbit number at epoch: 84089

The dashed part of the orbit path shows where the satellite is in the earth's shadow,  

DLR